,,PressureMeas_1m,,PRMeasQMR101_1,,RHStat155_1m_1,,SRMeasQMS101R_1m,,TAStat155_1m_1,,GenWind_1,,GenWind_1,
2018-08-02, 07:00:06,VALID,918.957,VALID,0.0,VALID,96.752,VALID,36.498,VALID,18.862,VALID,126.0,VALID,1.934,
2018-08-02, 07:01:06,VALID,918.963,VALID,0.0,VALID,96.681,VALID,37.588,VALID,18.87,VALID,128.0,VALID,1.673,
2018-08-02, 07:02:06,VALID,918.962,VALID,0.0,VALID,96.708,VALID,38.697,VALID,18.905,VALID,141.0,VALID,0.784,
2018-08-02, 07:03:06,VALID,918.978,VALID,0.0,VALID,96.642,VALID,39.766,VALID,18.918,VALID,136.0,VALID,1.153,
2018-08-02, 07:04:06,VALID,918.972,VALID,0.0,VALID,96.663,VALID,40.746,VALID,18.934,VALID,132.0,VALID,1.013,
2018-08-02, 07:05:06,VALID,918.998,VALID,0.0,VALID,96.749,VALID,41.639,VALID,18.943,VALID,108.0,VALID,0.551,
2018-08-02, 07:06:06,VALID,918.998,VALID,0.0,VALID,96.828,VALID,42.538,VALID,18.938,VALID,137.0,VALID,1.194,
2018-08-02, 07:07:06,VALID,919.018,VALID,0.0,VALID,96.747,VALID,43.454,VALID,18.924,VALID,153.0,VALID,0.87,
2018-08-02, 07:08:06,VALID,919.03,VALID,0.0,VALID,96.782,VALID,44.317,VALID,18.928,VALID,134.0,VALID,1.519,
2018-08-02, 07:09:06,VALID,919.04,VALID,0.0,VALID,96.762,VALID,45.218,VALID,18.925,VALID,163.0,VALID,0.827,
2018-08-02, 07:10:06,VALID,919.053,VALID,0.0,VALID,96.867,VALID,46.179,VALID,18.932,VALID,120.0,VALID,1.074,
2018-08-02, 07:11:06,VALID,919.049,VALID,0.0,VALID,96.803,VALID,47.323,VALID,18.908,VALID,132.0,VALID,1.032,
2018-08-02, 07:12:06,VALID,919.06,VALID,0.0,VALID,96.769,VALID,48.674,VALID,18.909,VALID,132.0,VALID,1.468,
2018-08-02, 07:13:06,VALID,919.06,VALID,0.0,VALID,96.551,VALID,50.143,VALID,18.9,VALID,129.0,VALID,1.963,
2018-08-02, 07:14:06,VALID,919.061,VALID,0.0,VALID,96.14,VALID,51.601,VALID,18.907,VALID,126.0,VALID,2.098,
2018-08-02, 07:15:06,VALID,919.069,VALID,0.0,VALID,95.889,VALID,52.925,VALID,18.938,VALID,118.0,VALID,2.233,
2018-08-02, 07:16:06,VALID,919.069,VALID,0.0,VALID,95.658,VALID,54.013,VALID,18.982,VALID,123.0,VALID,1.84,
2018-08-02, 07:17:06,VALID,919.087,VALID,0.0,VALID,95.464,VALID,54.764,VALID,19.0,VALID,123.0,VALID,2.299,
2018-08-02, 07:18:06,VALID,919.1,VALID,0.0,VALID,95.175,VALID,55.294,VALID,19.028,VALID,121.0,VALID,2.042,
2018-08-02, 07:19:06,VALID,919.105,VALID,0.0,VALID,95.085,VALID,55.708,VALID,19.06,VALID,126.0,VALID,1.45,
2018-08-02, 07:20:06,VALID,919.116,VALID,0.0,VALID,94.977,VALID,56.053,VALID,19.078,VALID,121.0,VALID,1.548,
2018-08-02, 07:21:06,VALID,919.114,VALID,0.0,VALID,94.919,VALID,56.377,VALID,19.089,VALID,136.0,VALID,1.551,
2018-08-02, 07:22:06,VALID,919.119,VALID,0.0,VALID,94.714,VALID,56.539,VALID,19.096,VALID,122.0,VALID,1.745,
2018-08-02, 07:23:06,VALID,919.14,VALID,0.0,VALID,94.462,VALID,56.65,VALID,19.104,VALID,119.0,VALID,1.624,
2018-08-02, 07:24:06,VALID,919.144,VALID,0.0,VALID,94.276,VALID,56.746,VALID,19.115,VALID,120.0,VALID,1.89,
2018-08-02, 07:25:06,VALID,919.162,VALID,0.0,VALID,94.288,VALID,56.838,VALID,19.135,VALID,116.0,VALID,1.321,
2018-08-02, 07:26:06,VALID,919.183,VALID,0.0,VALID,94.217,VALID,56.941,VALID,19.125,VALID,112.0,VALID,1.627,
2018-08-02, 07:27:06,VALID,919.201,VALID,0.0,VALID,93.975,VALID,56.961,VALID,19.114,VALID,108.0,VALID,2.248,
2018-08-02, 07:28:06,VALID,919.204,VALID,0.0,VALID,93.852,VALID,56.921,VALID,19.135,VALID,106.0,VALID,1.712,
2018-08-02, 07:29:06,VALID,919.215,VALID,0.0,VALID,93.942,VALID,56.779,VALID,19.143,VALID,105.0,VALID,1.555,
2018-08-02, 07:30:06,VALID,919.221,VALID,0.0,VALID,94.075,VALID,56.501,VALID,19.135,VALID,98.0,VALID,1.864,
2018-08-02, 07:31:06,VALID,919.226,VALID,0.0,VALID,94.341,VALID,56.195,VALID,19.125,VALID,103.0,VALID,1.735,
2018-08-02, 07:32:06,VALID,919.24,VALID,0.0,VALID,94.767,VALID,56.028,VALID,19.124,VALID,108.0,VALID,1.525,
2018-08-02, 07:33:06,VALID,919.253,VALID,0.0,VALID,95.136,VALID,55.984,VALID,19.092,VALID,115.0,VALID,1.608,
2018-08-02, 07:34:06,VALID,919.273,VALID,0.0,VALID,95.133,VALID,56.054,VALID,19.039,VALID,115.0,VALID,1.906,
2018-08-02, 07:35:06,VALID,919.288,VALID,0.0,VALID,95.041,VALID,56.165,VALID,19.054,VALID,122.0,VALID,1.712,
2018-08-02, 07:36:06,VALID,919.292,VALID,0.0,VALID,95.316,VALID,56.321,VALID,19.067,VALID,119.0,VALID,1.732,
2018-08-02, 07:37:06,VALID,919.298,VALID,0.0,VALID,95.231,VALID,56.502,VALID,19.062,VALID,123.0,VALID,2.032,
2018-08-02, 07:38:06,VALID,919.31,VALID,0.0,VALID,95.413,VALID,56.722,VALID,19.084,VALID,120.0,VALID,1.902,
2018-08-02, 07:39:06,VALID,919.32,VALID,0.0,VALID,95.355,VALID,57.013,VALID,19.088,VALID,126.0,VALID,2.029,
2018-08-02, 07:40:06,VALID,919.311,VALID,0.0,VALID,95.179,VALID,57.339,VALID,19.104,VALID,110.0,VALID,2.038,
2018-08-02, 07:41:06,VALID,919.33,VALID,0.0,VALID,95.004,VALID,57.722,VALID,19.131,VALID,116.0,VALID,2.14,
2018-08-02, 07:42:06,VALID,919.336,VALID,0.0,VALID,94.723,VALID,58.142,VALID,19.175,VALID,123.0,VALID,2.677,
2018-08-02, 07:43:06,VALID,919.351,VALID,0.0,VALID,94.494,VALID,58.596,VALID,19.229,VALID,122.0,VALID,2.495,
2018-08-02, 07:44:06,VALID,919.346,VALID,0.0,VALID,94.485,VALID,59.01,VALID,19.261,VALID,120.0,VALID,2.911,
2018-08-02, 07:45:06,VALID,919.356,VALID,0.0,VALID,94.565,VALID,59.415,VALID,19.253,VALID,124.0,VALID,2.53,
2018-08-02, 07:46:06,VALID,919.374,VALID,0.0,VALID,94.804,VALID,59.832,VALID,19.242,VALID,124.0,VALID,2.329,
2018-08-02, 07:47:06,VALID,919.384,VALID,0.0,VALID,94.853,VALID,60.312,VALID,19.222,VALID,122.0,VALID,2.664,
2018-08-02, 07:48:06,VALID,919.405,VALID,0.0,VALID,94.845,VALID,60.941,VALID,19.22,VALID,125.0,VALID,2.251,
2018-08-02, 07:49:06,VALID,919.417,VALID,0.0,VALID,95.082,VALID,61.773,VALID,19.23,VALID,127.0,VALID,1.988,
2018-08-02, 07:50:06,VALID,919.43,VALID,0.0,VALID,95.003,VALID,62.805,VALID,19.22,VALID,127.0,VALID,2.357,
2018-08-02, 07:51:06,VALID,919.448,VALID,0.0,VALID,94.852,VALID,63.988,VALID,19.23,VALID,126.0,VALID,2.534,
2018-08-02, 07:52:06,VALID,919.467,VALID,0.0,VALID,94.819,VALID,65.197,VALID,19.239,VALID,121.0,VALID,2.203,
2018-08-02, 07:53:06,VALID,919.49,VALID,0.0,VALID,94.913,VALID,66.307,VALID,19.233,VALID,122.0,VALID,2.39,
2018-08-02, 07:54:06,VALID,919.494,VALID,0.0,VALID,94.792,VALID,67.241,VALID,19.235,VALID,123.0,VALID,2.741,
2018-08-02, 07:55:06,VALID,919.523,VALID,0.0,VALID,94.588,VALID,68.052,VALID,19.251,VALID,123.0,VALID,3.046,
2018-08-02, 07:56:06,VALID,919.536,VALID,0.0,VALID,94.102,VALID,68.836,VALID,19.281,VALID,122.0,VALID,2.781,
2018-08-02, 07:57:06,VALID,919.53,VALID,0.0,VALID,93.755,VALID,69.656,VALID,19.314,VALID,123.0,VALID,2.796,
2018-08-02, 07:58:06,VALID,919.546,VALID,0.0,VALID,93.565,VALID,70.612,VALID,19.349,VALID,119.0,VALID,2.333,
2018-08-02, 07:59:06,VALID,919.563,VALID,0.0,VALID,93.306,VALID,71.634,VALID,19.355,VALID,116.0,VALID,2.468,
2018-08-02, 08:00:06,VALID,919.585,VALID,0.0,VALID,93.14,VALID,72.752,VALID,19.361,VALID,113.0,VALID,2.585,
2018-08-02, 08:01:06,VALID,919.58,VALID,0.0,VALID,92.949,VALID,73.982,VALID,19.394,VALID,122.0,VALID,2.267,
2018-08-02, 08:02:06,VALID,919.587,VALID,0.0,VALID,93.275,VALID,75.298,VALID,19.431,VALID,125.0,VALID,2.263,
2018-08-02, 08:03:06,VALID,919.593,VALID,0.0,VALID,93.107,VALID,76.631,VALID,19.44,VALID,126.0,VALID,2.194,
2018-08-02, 08:04:06,VALID,919.617,VALID,0.0,VALID,93.196,VALID,78.028,VALID,19.451,VALID,124.0,VALID,2.245,
2018-08-02, 08:05:06,VALID,919.612,VALID,0.0,VALID,92.923,VALID,79.45,VALID,19.449,VALID,124.0,VALID,2.582,
2018-08-02, 08:06:06,VALID,919.648,VALID,0.0,VALID,92.877,VALID,80.889,VALID,19.481,VALID,110.0,VALID,2.292,
2018-08-02, 08:07:06,VALID,919.654,VALID,0.0,VALID,93.222,VALID,82.437,VALID,19.473,VALID,109.0,VALID,2.314,
2018-08-02, 08:08:06,VALID,919.651,VALID,0.0,VALID,93.265,VALID,84.072,VALID,19.459,VALID,103.0,VALID,2.182,
2018-08-02, 08:09:06,VALID,919.673,VALID,0.0,VALID,93.747,VALID,85.852,VALID,19.475,VALID,102.0,VALID,1.702,
2018-08-02, 08:10:06,VALID,919.673,VALID,0.0,VALID,93.579,VALID,87.675,VALID,19.46,VALID,103.0,VALID,2.584,
2018-08-02, 08:11:06,VALID,919.679,VALID,0.0,VALID,93.122,VALID,89.428,VALID,19.474,VALID,101.0,VALID,2.0,
2018-08-02, 08:12:06,VALID,919.702,VALID,0.0,VALID,93.522,VALID,91.136,VALID,19.51,VALID,95.0,VALID,1.67,
2018-08-02, 08:13:06,VALID,919.707,VALID,0.0,VALID,93.651,VALID,92.738,VALID,19.523,VALID,101.0,VALID,1.354,
2018-08-02, 08:14:06,VALID,919.73,VALID,0.0,VALID,93.859,VALID,94.274,VALID,19.519,VALID,104.0,VALID,1.801,
2018-08-02, 08:15:06,VALID,919.744,VALID,0.0,VALID,93.57,VALID,95.769,VALID,19.504,VALID,104.0,VALID,1.651,
2018-08-02, 08:16:06,VALID,919.752,VALID,0.0,VALID,93.656,VALID,97.297,VALID,19.5,VALID,111.0,VALID,1.586,
2018-08-02, 08:17:06,VALID,919.757,VALID,0.0,VALID,93.337,VALID,98.88,VALID,19.494,VALID,113.0,VALID,1.934,
2018-08-02, 08:18:06,VALID,919.757,VALID,0.0,VALID,93.472,VALID,100.711,VALID,19.496,VALID,103.0,VALID,1.823,
2018-08-02, 08:19:06,VALID,919.75,VALID,0.0,VALID,93.911,VALID,102.816,VALID,19.508,VALID,110.0,VALID,1.787,
2018-08-02, 08:20:06,VALID,919.753,VALID,0.0,VALID,94.013,VALID,105.246,VALID,19.494,VALID,95.0,VALID,1.407,
2018-08-02, 08:21:07,VALID,919.748,VALID,0.0,VALID,93.958,VALID,107.926,VALID,19.479,VALID,98.0,VALID,1.811,
2018-08-02, 08:22:07,VALID,919.756,VALID,0.0,VALID,93.71,VALID,110.739,VALID,19.464,VALID,105.0,VALID,1.996,
2018-08-02, 08:23:07,VALID,919.757,VALID,0.0,VALID,93.808,VALID,113.554,VALID,19.461,VALID,114.0,VALID,2.134,
2018-08-02, 08:24:07,VALID,919.766,VALID,0.0,VALID,93.836,VALID,116.304,VALID,19.45,VALID,118.0,VALID,1.889,
2018-08-02, 08:25:07,VALID,919.78,VALID,0.0,VALID,93.679,VALID,119.026,VALID,19.438,VALID,121.0,VALID,1.944,
2018-08-02, 08:26:07,VALID,919.782,VALID,0.0,VALID,93.051,VALID,121.621,VALID,19.471,VALID,126.0,VALID,2.177,
2018-08-02, 08:27:07,VALID,919.79,VALID,0.0,VALID,92.856,VALID,124.179,VALID,19.542,VALID,126.0,VALID,1.839,
2018-08-02, 08:28:07,VALID,919.809,VALID,0.0,VALID,92.105,VALID,126.739,VALID,19.596,VALID,120.0,VALID,2.037,
2018-08-02, 08:29:07,VALID,919.817,VALID,0.0,VALID,91.696,VALID,129.444,VALID,19.644,VALID,127.0,VALID,1.939,
2018-08-02, 08:30:07,VALID,919.835,VALID,0.0,VALID,91.978,VALID,132.272,VALID,19.664,VALID,118.0,VALID,2.394,
2018-08-02, 08:31:07,VALID,919.834,VALID,0.0,VALID,91.896,VALID,135.2,VALID,19.649,VALID,113.0,VALID,2.243,
2018-08-02, 08:32:07,VALID,919.838,VALID,0.0,VALID,92.132,VALID,138.257,VALID,19.617,VALID,116.0,VALID,2.275,
2018-08-02, 08:33:07,VALID,919.839,VALID,0.0,VALID,92.578,VALID,141.395,VALID,19.606,VALID,121.0,VALID,2.121,
2018-08-02, 08:34:07,VALID,919.847,VALID,0.0,VALID,92.091,VALID,144.573,VALID,19.644,VALID,119.0,VALID,2.036,
2018-08-02, 08:35:07,VALID,919.854,VALID,0.0,VALID,91.116,VALID,147.799,VALID,19.698,VALID,125.0,VALID,2.245,
2018-08-02, 08:36:07,VALID,919.874,VALID,0.0,VALID,90.59,VALID,151.148,VALID,19.763,VALID,121.0,VALID,2.317,
2018-08-02, 08:37:07,VALID,919.881,VALID,0.0,VALID,90.616,VALID,154.622,VALID,19.807,VALID,115.0,VALID,2.177,
2018-08-02, 08:38:07,VALID,919.889,VALID,0.0,VALID,91.346,VALID,158.314,VALID,19.822,VALID,114.0,VALID,2.289,
2018-08-02, 08:39:07,VALID,919.894,VALID,0.0,VALID,91.102,VALID,162.13,VALID,19.835,VALID,118.0,VALID,2.525,
2018-08-02, 08:40:07,VALID,919.897,VALID,0.0,VALID,90.879,VALID,165.823,VALID,19.876,VALID,114.0,VALID,2.211,
2018-08-02, 08:41:07,VALID,919.914,VALID,0.0,VALID,91.318,VALID,169.401,VALID,19.906,VALID,122.0,VALID,2.368,
2018-08-02, 08:42:07,VALID,919.92,VALID,0.0,VALID,91.43,VALID,172.81,VALID,19.936,VALID,117.0,VALID,2.434,
2018-08-02, 08:43:07,VALID,919.927,VALID,0.0,VALID,91.324,VALID,176.087,VALID,19.96,VALID,115.0,VALID,1.796,
2018-08-02, 08:44:07,VALID,919.924,VALID,0.0,VALID,91.784,VALID,179.22,VALID,20.002,VALID,122.0,VALID,2.611,
2018-08-02, 08:45:07,VALID,919.935,VALID,0.0,VALID,91.298,VALID,182.235,VALID,20.059,VALID,122.0,VALID,2.302,
2018-08-02, 08:46:07,VALID,919.929,VALID,0.0,VALID,90.386,VALID,185.206,VALID,20.107,VALID,120.0,VALID,2.727,
2018-08-02, 08:47:07,VALID,919.932,VALID,0.0,VALID,90.597,VALID,188.1,VALID,20.15,VALID,122.0,VALID,2.422,
2018-08-02, 08:48:07,VALID,919.935,VALID,0.0,VALID,90.102,VALID,190.809,VALID,20.146,VALID,117.0,VALID,2.465,
2018-08-02, 08:49:07,VALID,919.955,VALID,0.0,VALID,89.867,VALID,193.258,VALID,20.135,VALID,116.0,VALID,2.605,
2018-08-02, 08:50:07,VALID,919.939,VALID,0.0,VALID,89.321,VALID,195.662,VALID,20.146,VALID,118.0,VALID,2.173,
2018-08-02, 08:51:07,VALID,919.949,VALID,0.0,VALID,89.997,VALID,197.998,VALID,20.176,VALID,123.0,VALID,2.261,
2018-08-02, 08:52:07,VALID,919.954,VALID,0.0,VALID,89.654,VALID,200.225,VALID,20.225,VALID,114.0,VALID,1.916,
2018-08-02, 08:53:07,VALID,919.966,VALID,0.0,VALID,90.529,VALID,202.492,VALID,20.255,VALID,120.0,VALID,1.682,
2018-08-02, 08:54:07,VALID,919.972,VALID,0.0,VALID,90.666,VALID,204.738,VALID,20.289,VALID,124.0,VALID,1.865,
2018-08-02, 08:55:07,VALID,919.977,VALID,0.0,VALID,89.67,VALID,207.593,VALID,20.33,VALID,115.0,VALID,1.862,
2018-08-02, 08:56:07,VALID,919.996,VALID,0.0,VALID,90.149,VALID,210.762,VALID,20.376,VALID,117.0,VALID,2.094,
2018-08-02, 08:57:07,VALID,919.996,VALID,0.0,VALID,89.414,VALID,214.165,VALID,20.358,VALID,124.0,VALID,1.926,
2018-08-02, 08:58:07,VALID,920.008,VALID,0.0,VALID,90.313,VALID,217.702,VALID,20.38,VALID,112.0,VALID,2.089,
2018-08-02, 08:59:07,VALID,920.01,VALID,0.0,VALID,91.025,VALID,221.191,VALID,20.366,VALID,113.0,VALID,1.741,
2018-08-02, 09:00:07,VALID,920.011,VALID,0.0,VALID,91.24,VALID,224.87,VALID,20.369,VALID,106.0,VALID,1.82,
2018-08-02, 09:01:07,VALID,920.015,VALID,0.0,VALID,91.338,VALID,228.749,VALID,20.404,VALID,116.0,VALID,2.428,
2018-08-02, 09:02:07,VALID,920.017,VALID,0.0,VALID,90.652,VALID,233.372,VALID,20.415,VALID,121.0,VALID,2.305,
2018-08-02, 09:03:07,VALID,920.006,VALID,0.0,VALID,90.189,VALID,238.366,VALID,20.437,VALID,127.0,VALID,2.244,
2018-08-02, 09:04:07,VALID,920.027,VALID,0.0,VALID,89.527,VALID,243.042,VALID,20.464,VALID,125.0,VALID,2.966,
2018-08-02, 09:05:07,VALID,920.021,VALID,0.0,VALID,88.567,VALID,250.313,VALID,20.475,VALID,120.0,VALID,2.432,
2018-08-02, 09:06:07,VALID,920.029,VALID,0.0,VALID,88.705,VALID,255.256,VALID,20.522,VALID,118.0,VALID,2.382,
2018-08-02, 09:07:07,VALID,920.034,VALID,0.0,VALID,88.0,VALID,261.019,VALID,20.554,VALID,127.0,VALID,2.188,
2018-08-02, 09:08:07,VALID,920.035,VALID,0.0,VALID,87.566,VALID,264.068,VALID,20.603,VALID,125.0,VALID,2.362,
2018-08-02, 09:09:07,VALID,920.047,VALID,0.0,VALID,87.682,VALID,262.89,VALID,20.69,VALID,134.0,VALID,1.601,
2018-08-02, 09:10:07,VALID,920.053,VALID,0.0,VALID,87.277,VALID,262.646,VALID,20.741,VALID,131.0,VALID,1.815,
2018-08-02, 09:11:07,VALID,920.067,VALID,0.0,VALID,87.036,VALID,261.847,VALID,20.813,VALID,134.0,VALID,1.8,
2018-08-02, 09:12:07,VALID,920.07,VALID,0.0,VALID,86.961,VALID,264.622,VALID,20.867,VALID,123.0,VALID,1.781,
2018-08-02, 09:13:07,VALID,920.091,VALID,0.0,VALID,87.157,VALID,271.467,VALID,20.913,VALID,146.0,VALID,1.534,
2018-08-02, 09:14:07,VALID,920.097,VALID,0.0,VALID,86.719,VALID,284.741,VALID,20.951,VALID,124.0,VALID,1.656,
2018-08-02, 09:15:07,VALID,920.099,VALID,0.0,VALID,87.252,VALID,297.751,VALID,20.982,VALID,125.0,VALID,1.906,
2018-08-02, 09:16:07,VALID,920.091,VALID,0.0,VALID,86.28,VALID,304.446,VALID,21.038,VALID,124.0,VALID,2.291,
2018-08-02, 09:17:07,VALID,920.098,VALID,0.0,VALID,85.938,VALID,309.978,VALID,21.096,VALID,123.0,VALID,2.272,
2018-08-02, 09:18:07,VALID,920.088,VALID,0.0,VALID,86.296,VALID,322.376,VALID,21.096,VALID,129.0,VALID,2.009,
2018-08-02, 09:19:07,VALID,920.087,VALID,0.0,VALID,85.982,VALID,325.801,VALID,21.136,VALID,125.0,VALID,2.402,
2018-08-02, 09:20:07,VALID,920.077,VALID,0.0,VALID,85.734,VALID,327.975,VALID,21.203,VALID,128.0,VALID,2.161,
2018-08-02, 09:21:07,VALID,920.087,VALID,0.0,VALID,85.336,VALID,324.357,VALID,21.252,VALID,131.0,VALID,2.213,
2018-08-02, 09:22:07,VALID,920.081,VALID,0.0,VALID,84.493,VALID,331.966,VALID,21.285,VALID,127.0,VALID,2.238,
2018-08-02, 09:23:07,VALID,920.098,VALID,0.0,VALID,84.141,VALID,338.708,VALID,21.344,VALID,126.0,VALID,2.625,
2018-08-02, 09:24:07,VALID,920.082,VALID,0.0,VALID,83.356,VALID,343.342,VALID,21.38,VALID,128.0,VALID,2.435,
2018-08-02, 09:25:07,VALID,920.072,VALID,0.0,VALID,84.274,VALID,347.638,VALID,21.423,VALID,128.0,VALID,2.537,
2018-08-02, 09:26:07,VALID,920.079,VALID,0.0,VALID,83.835,VALID,350.535,VALID,21.446,VALID,124.0,VALID,2.541,
2018-08-02, 09:27:07,VALID,920.075,VALID,0.0,VALID,82.529,VALID,354.139,VALID,21.477,VALID,114.0,VALID,2.764,
2018-08-02, 09:28:07,VALID,920.071,VALID,0.0,VALID,83.149,VALID,359.889,VALID,21.508,VALID,128.0,VALID,2.78,
2018-08-02, 09:29:07,VALID,920.075,VALID,0.0,VALID,83.313,VALID,365.223,VALID,21.551,VALID,122.0,VALID,2.737,
2018-08-02, 09:30:07,VALID,920.095,VALID,0.0,VALID,82.527,VALID,370.617,VALID,21.579,VALID,121.0,VALID,2.683,
2018-08-02, 09:31:07,VALID,920.082,VALID,0.0,VALID,81.496,VALID,377.78,VALID,21.607,VALID,122.0,VALID,3.242,
2018-08-02, 09:32:07,VALID,920.082,VALID,0.0,VALID,82.369,VALID,384.262,VALID,21.656,VALID,128.0,VALID,2.932,
2018-08-02, 09:33:07,VALID,920.1,VALID,0.0,VALID,81.366,VALID,388.432,VALID,21.689,VALID,116.0,VALID,3.201,
2018-08-02, 09:34:07,VALID,920.091,VALID,0.0,VALID,81.373,VALID,390.224,VALID,21.64,VALID,125.0,VALID,2.714,
2018-08-02, 09:35:07,VALID,920.099,VALID,0.0,VALID,81.938,VALID,391.847,VALID,21.688,VALID,123.0,VALID,3.357,
2018-08-02, 09:36:07,VALID,920.09,VALID,0.0,VALID,81.376,VALID,393.477,VALID,21.708,VALID,127.0,VALID,3.246,
2018-08-02, 09:37:07,VALID,920.091,VALID,0.0,VALID,81.553,VALID,394.271,VALID,21.798,VALID,120.0,VALID,2.847,
2018-08-02, 09:38:07,VALID,920.084,VALID,0.0,VALID,80.953,VALID,394.223,VALID,21.824,VALID,128.0,VALID,2.892,
2018-08-02, 09:39:07,VALID,920.085,VALID,0.0,VALID,80.774,VALID,396.09,VALID,21.838,VALID,120.0,VALID,2.876,
2018-08-02, 09:40:07,VALID,920.081,VALID,0.0,VALID,81.268,VALID,395.292,VALID,21.863,VALID,122.0,VALID,2.559,
2018-08-02, 09:41:07,VALID,920.075,VALID,0.0,VALID,81.063,VALID,396.769,VALID,21.935,VALID,120.0,VALID,2.704,
2018-08-02, 09:42:07,VALID,920.062,VALID,0.0,VALID,82.376,VALID,402.369,VALID,21.972,VALID,122.0,VALID,2.345,
2018-08-02, 09:43:07,VALID,920.074,VALID,0.0,VALID,83.05,VALID,408.533,VALID,22.042,VALID,116.0,VALID,2.488,
2018-08-02, 09:44:07,VALID,920.07,VALID,0.0,VALID,81.946,VALID,416.702,VALID,22.02,VALID,126.0,VALID,2.573,
2018-08-02, 09:45:07,VALID,920.062,VALID,0.0,VALID,81.077,VALID,422.348,VALID,22.043,VALID,112.0,VALID,2.364,
2018-08-02, 09:46:07,VALID,920.07,VALID,0.0,VALID,82.2,VALID,431.146,VALID,22.048,VALID,115.0,VALID,2.484,
2018-08-02, 09:47:07,VALID,920.055,VALID,0.0,VALID,81.811,VALID,439.089,VALID,21.962,VALID,114.0,VALID,2.818,
2018-08-02, 09:48:07,VALID,920.067,VALID,0.0,VALID,83.275,VALID,447.91,VALID,21.952,VALID,122.0,VALID,2.152,
2018-08-02, 09:49:07,VALID,920.081,VALID,0.0,VALID,83.532,VALID,453.315,VALID,22.113,VALID,117.0,VALID,1.655,
2018-08-02, 09:50:07,VALID,920.091,VALID,0.0,VALID,82.204,VALID,453.241,VALID,22.3,VALID,129.0,VALID,1.584,
2018-08-02, 09:51:07,VALID,920.108,VALID,0.0,VALID,81.494,VALID,454.824,VALID,22.46,VALID,119.0,VALID,1.571,
2018-08-02, 09:52:07,VALID,920.106,VALID,0.0,VALID,80.867,VALID,458.63,VALID,22.541,VALID,122.0,VALID,2.07,
2018-08-02, 09:53:07,VALID,920.123,VALID,0.0,VALID,80.404,VALID,459.512,VALID,22.584,VALID,121.0,VALID,2.081,
2018-08-02, 09:54:07,VALID,920.121,VALID,0.0,VALID,80.209,VALID,464.274,VALID,22.61,VALID,126.0,VALID,1.646,
2018-08-02, 09:55:07,VALID,920.127,VALID,0.0,VALID,79.795,VALID,470.703,VALID,22.701,VALID,146.0,VALID,0.655,
2018-08-02, 09:56:07,VALID,920.141,VALID,0.0,VALID,80.727,VALID,472.22,VALID,22.86,VALID,116.0,VALID,1.107,
2018-08-02, 09:57:07,VALID,920.147,VALID,0.0,VALID,80.037,VALID,473.099,VALID,22.963,VALID,117.0,VALID,1.252,
2018-08-02, 09:58:07,VALID,920.161,VALID,0.0,VALID,80.43,VALID,469.456,VALID,23.019,VALID,127.0,VALID,0.829,
2018-08-02, 09:59:07,VALID,920.172,VALID,0.0,VALID,79.099,VALID,476.61,VALID,23.25,VALID,149.0,VALID,0.517,
2018-08-02, 10:00:07,VALID,920.171,VALID,0.0,VALID,77.725,VALID,478.779,VALID,23.492,VALID,96.0,VALID,0.623,
2018-08-02, 10:01:07,VALID,920.164,VALID,0.0,VALID,75.607,VALID,481.021,VALID,23.551,INVALID,360.0,VALID,0.073,
2018-08-02, 10:02:07,VALID,920.167,VALID,0.0,VALID,76.837,VALID,483.968,VALID,23.686,VALID,129.0,VALID,0.451,
2018-08-02, 10:03:07,VALID,920.17,VALID,0.0,VALID,75.52,VALID,489.653,VALID,23.726,VALID,168.0,VALID,0.913,
2018-08-02, 10:04:07,VALID,920.18,VALID,0.0,VALID,73.985,VALID,496.938,VALID,23.637,VALID,144.0,VALID,0.546,
2018-08-02, 10:05:07,VALID,920.173,VALID,0.0,VALID,75.193,VALID,497.259,VALID,23.733,INVALID,360.0,VALID,0.048,
2018-08-02, 10:06:07,VALID,920.195,VALID,0.0,VALID,74.025,VALID,491.113,VALID,23.955,INVALID,360.0,VALID,0.146,
2018-08-02, 10:07:07,VALID,920.199,VALID,0.0,VALID,71.908,VALID,496.547,VALID,23.95,VALID,118.0,VALID,0.82,
2018-08-02, 10:08:07,VALID,920.201,VALID,0.0,VALID,72.657,VALID,499.702,VALID,23.751,VALID,119.0,VALID,0.475,
2018-08-02, 10:09:07,VALID,920.22,VALID,0.0,VALID,73.732,VALID,451.883,VALID,23.709,VALID,146.0,VALID,0.666,
2018-08-02, 10:10:07,VALID,920.223,VALID,0.0,VALID,71.669,VALID,407.531,VALID,23.561,VALID,160.0,VALID,0.716,
2018-08-02, 10:11:07,VALID,920.217,VALID,0.0,VALID,71.749,VALID,427.86,VALID,23.452,VALID,183.0,VALID,0.253,
2018-08-02, 10:12:07,VALID,920.208,VALID,0.0,VALID,72.765,VALID,449.688,VALID,23.445,VALID,179.0,VALID,0.359,
2018-08-02, 10:13:07,VALID,920.218,VALID,0.0,VALID,72.168,VALID,417.41,VALID,23.466,VALID,197.0,VALID,0.329,
2018-08-02, 10:14:07,VALID,920.216,VALID,0.0,VALID,73.011,VALID,422.383,VALID,23.413,VALID,178.0,VALID,0.306,
2018-08-02, 10:15:07,VALID,920.213,VALID,0.0,VALID,73.63,VALID,461.749,VALID,23.409,VALID,182.0,VALID,0.535,
2018-08-02, 10:16:07,VALID,920.234,VALID,0.0,VALID,73.68,VALID,434.486,VALID,23.421,VALID,179.0,VALID,0.214,
2018-08-02, 10:17:07,VALID,920.222,VALID,0.0,VALID,74.48,VALID,456.761,VALID,23.528,INVALID,360.0,VALID,0.131,
2018-08-02, 10:18:07,VALID,920.222,VALID,0.0,VALID,74.968,VALID,513.477,VALID,23.814,VALID,83.0,VALID,0.189,
2018-08-02, 10:19:07,VALID,920.231,VALID,0.0,VALID,74.749,VALID,566.205,VALID,24.23,INVALID,360.0,VALID,0.03,
2018-08-02, 10:20:07,VALID,920.239,VALID,0.0,VALID,72.46,VALID,529.365,VALID,24.645,VALID,110.0,VALID,0.411,
2018-08-02, 10:21:07,VALID,920.23,VALID,0.0,VALID,70.15,VALID,498.275,VALID,24.682,VALID,148.0,VALID,0.166,
2018-08-02, 10:22:07,VALID,920.216,VALID,0.0,VALID,68.928,VALID,500.101,VALID,24.687,INVALID,360.0,VALID,0.044,
2018-08-02, 10:23:07,VALID,920.198,VALID,0.0,VALID,70.378,VALID,478.345,VALID,24.728,INVALID,360.0,VALID,0.004,
2018-08-02, 10:24:07,VALID,920.183,VALID,0.0,VALID,70.855,VALID,423.642,VALID,24.838,INVALID,360.0,VALID,0.084,
2018-08-02, 10:25:07,VALID,920.177,VALID,0.0,VALID,71.238,VALID,444.057,VALID,24.788,VALID,193.0,VALID,0.193,
2018-08-02, 10:26:07,VALID,920.15,VALID,0.0,VALID,71.12,VALID,550.962,VALID,24.605,VALID,187.0,VALID,0.372,
2018-08-02, 10:27:07,VALID,920.161,VALID,0.0,VALID,71.801,VALID,623.152,VALID,24.415,VALID,177.0,VALID,0.5,
2018-08-02, 10:28:07,VALID,920.15,VALID,0.0,VALID,74.563,VALID,512.651,VALID,24.4,VALID,127.0,VALID,0.408,
2018-08-02, 10:29:07,VALID,920.151,VALID,0.0,VALID,73.643,VALID,544.159,VALID,24.593,VALID,172.0,VALID,0.495,
2018-08-02, 10:30:07,VALID,920.146,VALID,0.0,VALID,73.245,VALID,636.846,VALID,24.832,VALID,155.0,VALID,0.468,
2018-08-02, 10:31:07,VALID,920.148,VALID,0.0,VALID,71.014,VALID,600.861,VALID,24.922,VALID,155.0,VALID,0.337,
2018-08-02, 10:32:06,VALID,920.147,VALID,0.0,VALID,70.829,VALID,557.611,VALID,24.968,VALID,124.0,VALID,0.981,
2018-08-02, 10:33:06,VALID,920.149,VALID,0.0,VALID,71.567,VALID,505.511,VALID,24.842,VALID,163.0,VALID,0.75,
2018-08-02, 10:34:06,VALID,920.149,VALID,0.0,VALID,72.165,VALID,496.033,VALID,24.842,VALID,148.0,VALID,0.418,
2018-08-02, 10:35:06,VALID,920.15,VALID,0.0,VALID,72.282,VALID,497.101,VALID,24.784,VALID,120.0,VALID,0.971,
2018-08-02, 10:36:06,VALID,920.15,VALID,0.0,VALID,74.407,VALID,589.038,VALID,24.71,VALID,103.0,VALID,1.154,